Showing default

CHAMRAN-1, 61072

Orbit data source: Space-Track

CHAMRAN-1, 61072 is an Iranian payload satellite in LEO that was launched on Sat, 14 Sep 2024 UTC via a QAEM-100 launch vehicle from the Sharud Missile Test Site (SMTS). Payload-class satellites include a variety of spacecraft equipped with specific instruments for various scientific and technological missions. These include communications satellites like Starlink; space stations such as the ISS; scientific satellites like the Hubble; Earth observation satellites from companies like Planet Labs, Umbra, and HawkEye 360; GPS; miniature CubeSats for education and research; and military/defense satellites.

Loading next visibility...
Identifier
61072, 2024-165B
Orbit
LEO
Country
Flag of UnknownUnknown / IRAN
Related business
Manufacturer
IEI
Mission
Operational Defense Communications
Bus & Motor
Unknown
Mass
60 kg wet, 60 kg dry
Launch date (UTC)
2024-09-14 (1 year ago)
Launch vehicle
QAEM-100
Launch site
Sharud Missile Test Site (SMTS)
Object type
Payload
Rocket body
Debris
Shape & HBR
Box, 0.3 m
Radar Cross Section
0.375 m², Medium (>0.1 m² and < 1m²)

Expand to show TLE details & history
Last TLE update: 2 weeks ago

TLE from 2 weeks ago
0 CHAMRAN-1
1 61072U 24165B   25250.93436862  .00005547  00000-0  36343-3 0  9992
2 61072  64.0674 248.1748 0029102 303.6436  56.1903 15.08426626 54056
Epoch: 2025-09-07T22:25Z
TLE epoch observation values (Epoch: 2025-09-07T22:25:29.448Z)
Latitude
0.00003°
Longitude
-75.44461°
Altitude
531.804 km
Speed
7.604 km/s
True Right ascension
16h 32m 41s
True Declination
0° 00' 00"
Sunlit
Object was in daylight at epoch
Visualization orbit readout
Latitude
Unknown
Longitude
Unknown
Altitude
Unknown
Speed
Unknown
Apparent Right ascension
Unknown
Apparent Declination
Unknown
Sunlit
N/A
Visualization observer readout
Local Sidereal Time
20:51:31
Azimuth
Unknown
Elevation
Unknown
Doppler factor
Unknown
Orbital elements
Apogee altitude
559.787 km
Perigee altitude
519.523 km
Semi-major axis
6,917.792 km
Eccentricity
0.00291
Inclination
64.0674°
RAAN
248.1748°
Arg. of periapsis
303.6436°
True anomaly
56.46795°
Mean anomaly
56.1903°
Eccentric anomaly
56.32907°
Mean motion
3.77218 °/min
Orbital period
95.44 mins
BSTAR
0.00036343
Loading maneuver chart data...
Computing Atmospheric mass density...
Loading historical data...
Loading historical data...
Loading historical data...
Loading historical data...
Loading historical data...
Loading historical data...
Loading historical data...
Other satellites on launch #165 in the year 2024 (2024-09-14 UTC)

Documentation

Showing up to 5 results
|